RH
16 17 18 18 18 18 18 19 19 18 17 16 16 16 16 16 19 18 19 20 23 23 18 17 19 19 20 24 24 25 31 35 28 25 27 23 22 18 19 18 17 28 38 39 48
17 17 17 17 16 18 18 19 19 20 18 18 17 17 17 17 21 19 19 20 22 18 18 19 19 19 22 25 27 28 34 32 30 29 30 27 28 21 21 19 18 21 30 39 44
18 18 18 18 17 17 17 18 19 19 19 18 18 17 17 19 22 20 20 20 19 18 19 20 20 22 24 26 30 33 35 35 32 35 36 34 28 26 25 21 21 23 22 42 56
14 14 13 14 16 18 19 18 18 19 19 20 20 19 18 20 20 21 22 21 20 20 19 20 22 25 28 31 32 34 34 36 35 38 39 38 37 31 26 24 22 25 25 36 60
16 15 15 15 15 15 18 20 21 21 19 20 22 21 21 22 22 22 22 22 21 21 21 23 26 29 33 35 37 39 38 42 42 42 44 43 39 37 27 22 24 25 27 33 48
17 17 18 18 17 17 17 17 18 19 21 22 22 22 23 25 24 24 23 24 23 24 25 26 29 31 36 38 42 41 43 41 41 44 44 45 40 45 27 33 29 27 29 31 43
21 20 19 18 17 18 18 17 17 18 19 21 22 24 23 25 26 25 24 25 25 26 27 29 32 35 38 41 42 40 41 40 41 43 46 44 38 41 43 42 35 31 30 34 35
20 21 19 18 18 19 18 17 17 18 19 21 22 23 24 28 29 26 24 26 27 28 31 32 34 38 44 44 43 42 42 46 37 38 41 44 40 40 43 48 43 37 33 32 36
15 17 17 17 17 17 18 18 18 20 21 21 23 26 27 30 29 27 26 28 29 31 33 34 36 41 44 46 45 46 53 50 44 41 41 43 32 30 40 42 41 41 37 33 34
9 11 14 16 16 16 17 17 18 19 22 23 27 28 27 30 28 29 27 29 31 33 35 37 41 44 45 50 57 52 55 52 56 47 49 50 39 33 32 37 36 43 39 34 33
8 8 10 13 15 15 17 17 18 19 20 21 23 27 26 28 30 31 32 31 31 36 39 40 46 48 46 50 53 58 57 55 51 52 51 48 46 44 43 33 33 41 42 37 32
8 10 8 8 12 15 17 18 20 21 23 21 25 28 29 29 31 33 35 36 34 38 41 44 48 42 46 52 55 58 59 51 50 54 58 53 45 43 46 35 29 35 41 36 32
20 9 12 9 11 13 15 19 20 22 25 23 27 28 30 30 35 35 37 38 38 40 41 47 41 46 50 53 56 59 61 54 57 59 66 59 48 45 42 40 32 30 40 37 34
33 23 12 13 13 15 17 18 20 23 28 26 30 30 32 31 37 39 40 40 42 43 43 45 42 48 53 59 63 68 60 60 63 70 76 70 70 57 52 44 43 40 37 34 35
38 35 24 13 17 15 18 19 23 28 27 25 27 27 29 33 35 41 41 42 45 47 47 37 41 47 55 61 66 69 69 68 69 73 78 76 82 65 63 65 59 51 45 38 38
46 43 40 18 13 23 18 19 25 31 24 24 25 25 28 34 35 42 43 43 44 50 52 49 45 47 52 59 65 71 70 70 76 78 79 74 86 70 65 68 69 56 55 44 40
44 44 44 34 18 25 18 21 29 33 21 23 22 23 25 31 37 41 44 45 47 53 49 48 46 48 52 58 60 70 75 77 73 80 83 75 89 72 58 57 63 60 60 52 46
43 43 41 47 24 26 25 23 26 18 26 23 20 19 23 26 30 41 42 48 47 52 61 62 46 48 54 56 62 72 78 88 95 88 82 79 86 68 62 58 58 62 59 60 49
36 36 41 47 36 27 32 32 19 22 25 26 20 20 22 24 28 34 43 42 44 49 48 59 54 46 52 57 61 73 82 80 91 84 89 74 68 63 64 65 60 56 54 57 47
34 37 43 47 45 32 37 32 19 25 24 25 26 22 24 22 27 31 35 33 38 50 49 52 65 49 49 57 63 68 75 88 92 95 91 74 70 77 63 65 65 59 55 59 53
39 45 51 54 50 41 46 41 22 21 22 23 27 27 25 27 28 31 32 33 36 40 52 52 58 57 53 59 63 73 76 83 90 96 94 90 68 60 64 71 68 65 60 62 63
45 51 56 58 56 50 49 47 31 26 24 27 28 26 27 26 31 32 32 33 36 40 44 52 56 67 55 50 56 61 65 73 84 84 95 93 64 61 70 74 72 65 65 68 64
47 51 56 59 59 54 52 55 48 38 30 29 30 28 27 31 34 34 32 31 33 39 46 48 59 61 51 50 56 65 64 66 76 84 82 92 70 58 70 70 73 67 68 70 64
48 48 52 60 60 56 54 54 55 44 42 34 34 37 40 34 36 35 34 33 33 35 42 48 59 58 60 53 54 56 55 58 63 74 69 73 64 56 56 63 65 64 70 71 68
50 50 51 59 66 63 63 61 63 61 60 51 39 40 50 43 38 38 35 35 32 35 42 46 57 63 62 59 61 61 55 52 57 54 72 60 67 57 59 60 56 67 70 69 65
38 51 51 59 64 70 73 72 70 73 66 52 54 52 42 42 45 45 41 39 37 34 39 42 48 53 65 57 57 61 48 48 50 48 61 64 58 50 54 59 61 66 67 65 62
37 36 51 56 66 69 69 74 75 74 67 62 62 60 54 48 47 44 40 38 37 36 36 41 43 50 58 62 60 59 46 39 39 42 48 59 45 41 50 61 66 64 65 64 70